This is the latest recevied weather packets stored in our database for station/object WA5TET. If no packets are shown the sender has not sent any weather packets the latest 10 day(s).
| Time | Temp. | Humidity | Pressure | Rain* | Wind** | Luminosity | Snow |
|---|---|---|---|---|---|---|---|
| 1787878069 | 35.56° C | 32% | 1011.8 hPa | 0 mm | - | 11 W/m² | - |
| 1787877765 | 35.56° C | 32% | 1012 hPa | 0 mm | - | 16 W/m² | - |
| 1787877460 | 35.56° C | 32% | 1011.8 hPa | 0 mm | - | 22 W/m² | - |
| 1787877156 | 35.56° C | 33% | 1011.7 hPa | 0 mm | - | 27 W/m² | - |
| 1787876855 | 35.56° C | 32% | 1012 hPa | 0 mm | - | 31 W/m² | - |
| 1787876551 | 35.56° C | 33% | 1011.8 hPa | 0 mm | - | 35 W/m² | - |
| 1787876250 | 35.56° C | 34% | 1012 hPa | 0 mm | - | 39 W/m² | - |
| 1787875952 | 35.56° C | 34% | 1011.7 hPa | 0 mm | - | 42 W/m² | - |
| 1787875644 | 35.56° C | 34% | 1011.7 hPa | 0 mm | - | 44 W/m² | - |
| 1787875343 | 35.56° C | 33% | 1011.6 hPa | 0 mm | - | 48 W/m² | - |
| 1787875042 | 36.11° C | 33% | 1011.7 hPa | 0 mm | - | 48 W/m² | - |
| 1787874738 | 36.11° C | 32% | 1011.8 hPa | 0 mm | - | 49 W/m² | - |
| 1787874435 | 36.11° C | 32% | 1011.5 hPa | 0 mm | - | 47 W/m² | - |
| 1787874130 | 36.11° C | 32% | 1011.7 hPa | 0 mm | - | 50 W/m² | - |
| 1787873826 | 36.11° C | 32% | 1011.7 hPa | 0 mm | - | 60 W/m² | - |
| 1787873525 | 36.67° C | 31% | 1011.6 hPa | 0 mm | - | 65 W/m² | - |
| 1787873220 | 36.67° C | 31% | 1011.6 hPa | 0 mm | - | 70 W/m² | - |
| 1787872919 | 36.67° C | 31% | 1011.7 hPa | 0 mm | - | 72 W/m² | - |
| 1787872614 | 36.67° C | 31% | 1011.8 hPa | 0 mm | - | 70 W/m² | - |
| 1787872309 | 37.22° C | 32% | 1011.6 hPa | 0 mm | - | 77 W/m² | - |
| 1787872004 | 37.22° C | 31% | 1011.7 hPa | 0 mm | - | 80 W/m² | - |
| 1787871700 | 37.78° C | 31% | 1011.8 hPa | 0 mm | - | 82 W/m² | - |
| 1787871395 | 37.78° C | 31% | 1011.8 hPa | 0 mm | - | 162 W/m² | - |
| 1787871090 | 37.78° C | 31% | 1012.1 hPa | 0 mm | - | 331 W/m² | - |
| 1787870789 | 37.78° C | 31% | 1012 hPa | 0 mm | - | 349 W/m² | - |
* Rain latest hour (hover to see other rain measurements)
** Current wind speed in m/s (hover to see current wind gust speed)